Henderson, NV

1:54 PM PDT on March 28, 2017 (GMT -0700)
Henderson

Weather History for KHND - September, 2013

Change the Weather History Date:

Sunday, September 15, 2013

  Actual Average (KLAS) Record (KLAS)
Temperature  
Mean Temperature 84 °F -  
Max Temperature 99 °F 94 °F 107 °F (2000)
Min Temperature 70 °F 66 °F 49 °F (1941)
Cooling Degree Days 20    
Growing Degree Days 34 (Base 50)    
Moisture  
Dew Point 52 °F    
Average Humidity 35    
Maximum Humidity 57    
Minimum Humidity 19    
Precipitation  
Precipitation 0.00 in - - ()
Sea Level Pressure  
Sea Level Pressure 29.78 in    
Wind  
Wind Speed 5 mph (SSE)    
Max Wind Speed 10 mph    
Max Gust Speed -    
Visibility 10 miles    
Events Rain    
Averages and records for this station are not official NWS values.
T = Trace of Precipitation, MM = Missing Value Source: NWS Daily Summary

Daily Weather History Graph

Daily Weather History Graph

Search for Another Location

Airport or City:

Trip Planner

Search our weather history database for the weather conditions in past years. The results will help you decide how hot, cold, wet, or windy it might be!

Date:

Astronomy

Sep. 15, 2013 Rise Set
Actual Time 6:23 AM PDT 6:47 PM PDT
Civil Twilight 5:57 AM PDT 7:12 PM PDT
Nautical Twilight 5:27 AM PDT 7:42 PM PDT
Astronomical Twilight 4:56 AM PDT 8:13 PM PDT
Moon 4:12 PM PDT (9/15) 2:12 AM PDT (9/15)
Length of Visible Light 13h 15m
Length of Day
12h 23m
Waxing Gibbous, 83% of the Moon is Illuminated
Sep 15
Waxing Gibbous
Sep 19
Full
Sep 26
Last Quarter
Oct 4
New
Oct 11
First Quarter

Hourly Weather History & Observations

Time (PDT) Temp. Dew Point Humidity Pressure Visibility Wind Dir Wind Speed Gust Speed Precip Events Conditions
12:56 AM 74.8 °F 54.9 °F 50% 29.74 in 10.0 mi Calm Calm - 0.00 in Rain Heavy Rain
1:56 AM 73.9 °F 55.9 °F 53% 29.74 in 10.0 mi SSE 5.8 mph - 0.00 in Rain Heavy Rain
2:56 AM 72.9 °F 54.9 °F 53% 29.75 in 10.0 mi SSE 6.9 mph - 0.00 in Rain Heavy Rain
3:56 AM 72.0 °F 55.9 °F 57% 29.76 in 10.0 mi SSE 5.8 mph - 0.00 in Rain Heavy Rain
4:56 AM 70.9 °F 54.9 °F 57% 29.77 in 10.0 mi SE 5.8 mph - 0.00 in Rain Heavy Rain
5:56 AM 70.9 °F 54.9 °F 57% 29.79 in 10.0 mi SSE 6.9 mph - 0.00 in   Clear
6:56 AM 70.9 °F 54.9 °F 57% 29.81 in 10.0 mi South 5.8 mph - N/A   Clear
7:56 AM 75.9 °F 54.9 °F 48% 29.82 in 10.0 mi Calm Calm - N/A   Clear
8:56 AM 81.9 °F 52.0 °F 35% 29.83 in 10.0 mi Calm Calm - N/A   Clear
9:56 AM 84.9 °F 52.0 °F 32% 29.84 in 10.0 mi NNE 5.8 mph - N/A   Clear
10:56 AM 88.0 °F 52.0 °F 29% 29.84 in 10.0 mi Variable 5.8 mph - N/A   Clear
11:56 AM 90.0 °F 52.0 °F 27% 29.83 in 10.0 mi Variable 3.5 mph - N/A   Clear
12:56 PM 91.9 °F 52.0 °F 26% 29.81 in 10.0 mi Calm Calm - N/A   Clear
1:56 PM 95.0 °F 52.9 °F 24% 29.78 in 10.0 mi NNE 4.6 mph - N/A   Clear
2:56 PM 97.0 °F 52.0 °F 22% 29.75 in 10.0 mi North 5.8 mph - N/A   Clear
3:56 PM 99.0 °F 50.0 °F 19% 29.73 in 10.0 mi NNE 4.6 mph - N/A   Clear
4:56 PM 97.9 °F 48.9 °F 19% 29.72 in 10.0 mi SSE 10.4 mph - N/A   Clear
5:56 PM 97.0 °F 47.8 °F 19% 29.73 in 10.0 mi SSE 8.1 mph - N/A   Clear
6:56 PM 92.8 °F 50.0 °F 23% 29.74 in 10.0 mi SSE 8.1 mph - N/A   Clear
7:56 PM 90.0 °F 50.0 °F 25% 29.75 in 10.0 mi SSE 9.2 mph - N/A   Clear
8:56 PM 88.0 °F 48.9 °F 26% 29.76 in 10.0 mi SSE 9.2 mph - N/A   Clear
9:56 PM 86.9 °F 46.9 °F 25% 29.77 in 10.0 mi SSE 6.9 mph - 0.00 in   Clear
10:56 PM 84.9 °F 46.9 °F 27% 29.78 in 10.0 mi West 8.1 mph - 0.00 in   Clear
11:56 PM 82.9 °F 47.8 °F 29% 29.79 in 10.0 mi SSW 5.8 mph - 0.00 in Rain Light Rain